When you browse on this site, cookies collect data to enhance your experience and personalize the content and advertising you see.
Visit our Privacy Policy to learn more. By continuing to use the site, you agree to this use of cookies and data.
  • In Deutschland
  • Länderverzeichnis
  • Für 7 Tage
  • Wassertemperatur
  • Wetterkarte
  • Widgets
  • user-avatar
    Anmelden

    Stündliche Wetter Batina

    Heute, 18 Oktober, Freitag

    Zeit Temperatur Niederschläge Wind Luftdruck Luftfeuchtigkeit
    00:00 +17°C° 0 mm 2 m/S 673 mmHg 71%
    01:00 +17°C° 0 mm 2 m/S 672 mmHg 73%
    02:00 +17°C° 0 mm 2 m/S 672 mmHg 74%
    03:00 +17°C° 0 mm 2 m/S 672 mmHg 76%
    04:00 +16°C° 0 mm 1 m/S 672 mmHg 78%
    05:00 +16°C° 0 mm 1 m/S 672 mmHg 79%
    06:00 +16°C° 0 mm 1 m/S 672 mmHg 81%
    07:00 +18°C° 0 mm 1 m/S 672 mmHg 72%
    08:00 +20°C° 0 mm 1 m/S 673 mmHg 64%
    09:00 +22°C° 0 mm 1 m/S 674 mmHg 55%
    10:00 +23°C° 0 mm 2 m/S 674 mmHg 52%
    11:00 +24°C° 0 mm 3 m/S 674 mmHg 48%
    12:00 +24°C° 0 mm 3 m/S 674 mmHg 44%
    13:00 +24°C° 0.2 mm 3 m/S 673 mmHg 44%
    14:00 +24°C° 0.2 mm 3 m/S 673 mmHg 44%
    15:00 +24°C° 0.2 mm 3 m/S 673 mmHg 44%
    16:00 +22°C° 0.1 mm 3 m/S 672 mmHg 49%
    17:00 +21°C° 0.1 mm 2 m/S 672 mmHg 53%
    18:00 +20°C° 0.1 mm 2 m/S 672 mmHg 58%
    19:00 +21°C° 0 mm 1 m/S 672 mmHg 61%
    20:00 +20°C° 0 mm 1 m/S 672 mmHg 64%
    21:00 +19°C° 0 mm 1 m/S 672 mmHg 68%
    22:00 +19°C° 0 mm 1 m/S 672 mmHg 68%
    23:00 +19°C° 0 mm 1 m/S 672 mmHg 69%

    Morgen, 19 Oktober, Samstag

    Zeit Temperatur Niederschläge Wind Luftdruck Luftfeuchtigkeit
    00:00 +18°C° 0 mm 1 m/S 671 mmHg 70%
    01:00 +18°C° 0 mm 1 m/S 671 mmHg 71%
    02:00 +17°C° 0 mm 2 m/S 671 mmHg 71%
    03:00 +17°C° 0 mm 2 m/S 671 mmHg 72%
    04:00 +16°C° 0 mm 2 m/S 670 mmHg 74%
    05:00 +16°C° 0 mm 2 m/S 670 mmHg 76%
    06:00 +16°C° 0 mm 2 m/S 670 mmHg 77%
    07:00 +18°C° 0 mm 3 m/S 671 mmHg 69%
    08:00 +19°C° 0 mm 3 m/S 672 mmHg 61%
    09:00 +21°C° 0 mm 4 m/S 673 mmHg 53%
    10:00 +22°C° 0 mm 4 m/S 672 mmHg 50%
    11:00 +23°C° 0 mm 5 m/S 672 mmHg 46%
    12:00 +24°C° 0 mm 6 m/S 672 mmHg 43%
    13:00 +25°C° 0 mm 5 m/S 672 mmHg 43%
    14:00 +23°C° 0 mm 5 m/S 671 mmHg 43%
    15:00 +23°C° 0 mm 5 m/S 671 mmHg 43%
    16:00 +22°C° 0 mm 4 m/S 671 mmHg 47%
    17:00 +21°C° 0 mm 3 m/S 671 mmHg 51%
    18:00 +20°C° 0 mm 2 m/S 670 mmHg 55%
    19:00 +19°C° 0 mm 2 m/S 671 mmHg 57%
    20:00 +19°C° 0 mm 2 m/S 671 mmHg 58%
    21:00 +18°C° 0 mm 2 m/S 671 mmHg 60%
    22:00 +18°C° 0 mm 2 m/S 671 mmHg 60%
    23:00 +18°C° 0 mm 2 m/S 671 mmHg 61%

    übermorgen, 20 Oktober, Sonntag

    Zeit Temperatur Niederschläge Wind Luftdruck Luftfeuchtigkeit
    00:00 +17°C° 0 mm 2 m/S 670 mmHg 62%
    01:00 +17°C° 0 mm 2 m/S 670 mmHg 62%
    02:00 +17°C° 0 mm 2 m/S 670 mmHg 63%
    03:00 +17°C° 0 mm 2 m/S 670 mmHg 64%
    04:00 +16°C° 0 mm 2 m/S 670 mmHg 65%
    05:00 +16°C° 0 mm 2 m/S 670 mmHg 65%
    06:00 +16°C° 0 mm 2 m/S 670 mmHg 65%
    07:00 +18°C° 0 mm 2 m/S 671 mmHg 58%
    08:00 +20°C° 0 mm 2 m/S 672 mmHg 51%
    09:00 +23°C° 0 mm 2 m/S 673 mmHg 43%
    10:00 +24°C° 0 mm 3 m/S 673 mmHg 41%
    11:00 +24°C° 0 mm 3 m/S 672 mmHg 38%
    12:00 +25°C° 0 mm 3 m/S 672 mmHg 36%
    13:00 +25°C° 0 mm 3 m/S 672 mmHg 36%
    14:00 +25°C° 0 mm 3 m/S 672 mmHg 36%
    15:00 +25°C° 0 mm 3 m/S 672 mmHg 36%
    16:00 +24°C° 0 mm 3 m/S 672 mmHg 41%
    17:00 +23°C° 0 mm 2 m/S 671 mmHg 45%
    18:00 +20°C° 0 mm 2 m/S 671 mmHg 50%
    19:00 +20°C° 0 mm 2 m/S 671 mmHg 52%
    20:00 +19°C° 0 mm 2 m/S 671 mmHg 53%
    21:00 +20°C° 0 mm 1 m/S 672 mmHg 55%
    22:00 +19°C° 0 mm 1 m/S 671 mmHg 55%
    23:00 +19°C° 0 mm 1 m/S 671 mmHg 55%

    21 Oktober, Montag

    Zeit Temperatur Niederschläge Wind Luftdruck Luftfeuchtigkeit
    00:00 +19°C° 0 mm 1 m/S 671 mmHg 56%
    01:00 +18°C° 0 mm 1 m/S 671 mmHg 56%
    02:00 +18°C° 0 mm 1 m/S 671 mmHg 57%
    03:00 +18°C° 0 mm 1 m/S 671 mmHg 57%
    04:00 +18°C° 0 mm 1 m/S 671 mmHg 58%
    05:00 +18°C° 0 mm 1 m/S 670 mmHg 59%
    06:00 +16°C° 0 mm 1 m/S 670 mmHg 60%
    07:00 +18°C° 0 mm 2 m/S 671 mmHg 53%
    08:00 +20°C° 0 mm 3 m/S 672 mmHg 47%
    09:00 +22°C° 0 mm 4 m/S 672 mmHg 41%
    10:00 +23°C° 0 mm 5 m/S 672 mmHg 41%
    11:00 +24°C° 0 mm 6 m/S 672 mmHg 40%
    12:00 +24°C° 0 mm 6 m/S 672 mmHg 39%
    13:00 +24°C° 0 mm 6 m/S 671 mmHg 40%
    14:00 +24°C° 0 mm 6 m/S 671 mmHg 41%
    15:00 +24°C° 0 mm 6 m/S 670 mmHg 41%
    16:00 +23°C° 0 mm 5 m/S 670 mmHg 46%
    17:00 +21°C° 0 mm 4 m/S 670 mmHg 50%
    18:00 +20°C° 0 mm 3 m/S 670 mmHg 54%
    19:00 +20°C° 0 mm 3 m/S 669 mmHg 56%
    20:00 +19°C° 0 mm 3 m/S 669 mmHg 57%
    21:00 +19°C° 0 mm 2 m/S 669 mmHg 58%
    22:00 +19°C° 0 mm 2 m/S 669 mmHg 59%
    23:00 +18°C° 0 mm 3 m/S 669 mmHg 60%

    22 Oktober, Dienstag

    Zeit Temperatur Niederschläge Wind Luftdruck Luftfeuchtigkeit
    00:00 +18°C° 0 mm 3 m/S 668 mmHg 61%
    01:00 +18°C° 0 mm 2 m/S 668 mmHg 64%
    02:00 +17°C° 0 mm 2 m/S 668 mmHg 68%
    03:00 +16°C° 0 mm 2 m/S 667 mmHg 71%
    04:00 +16°C° 0 mm 2 m/S 667 mmHg 73%
    05:00 +16°C° 0 mm 2 m/S 667 mmHg 75%
    06:00 +16°C° 0 mm 2 m/S 667 mmHg 78%
    07:00 +18°C° 0 mm 2 m/S 668 mmHg 66%
    08:00 +21°C° 0 mm 3 m/S 669 mmHg 53%
    09:00 +23°C° 0 mm 4 m/S 670 mmHg 41%
    10:00 +24°C° 0 mm 6 m/S 670 mmHg 37%
    11:00 +26°C° 0 mm 7 m/S 670 mmHg 34%
    12:00 +27°C° 0 mm 9 m/S 670 mmHg 30%
    13:00 +27°C° 0 mm 9 m/S 669 mmHg 30%
    14:00 +27°C° 0 mm 10 m/S 669 mmHg 30%
    15:00 +27°C° 0 mm 10 m/S 668 mmHg 31%
    16:00 +26°C° 0 mm 9 m/S 667 mmHg 35%
    17:00 +23°C° 0 mm 8 m/S 667 mmHg 39%
    18:00 +22°C° 0 mm 7 m/S 666 mmHg 43%
    19:00 +22°C° 0 mm 8 m/S 666 mmHg 43%
    20:00 +22°C° 0 mm 8 m/S 666 mmHg 44%
    21:00 +22°C° 0 mm 9 m/S 666 mmHg 44%
    22:00 +22°C° 0 mm 10 m/S 665 mmHg 47%
    23:00 +21°C° 0 mm 10 m/S 665 mmHg 49%

    23 Oktober, Mittwoch

    Zeit Temperatur Niederschläge Wind Luftdruck Luftfeuchtigkeit
    00:00 +21°C° 0 mm 11 m/S 665 mmHg 51%
    01:00 +21°C° 0 mm 11 m/S 664 mmHg 52%
    02:00 +21°C° 0 mm 11 m/S 664 mmHg 53%
    03:00 +21°C° 0 mm 11 m/S 663 mmHg 53%
    04:00 +19°C° 0 mm 12 m/S 663 mmHg 55%
    05:00 +19°C° 0 mm 12 m/S 664 mmHg 57%
    06:00 +18°C° 0 mm 13 m/S 664 mmHg 59%
    07:00 +18°C° 0 mm 14 m/S 664 mmHg 52%
    08:00 +19°C° 0 mm 14 m/S 665 mmHg 46%
    09:00 +19°C° 0 mm 15 m/S 666 mmHg 40%
    10:00 +19°C° 0 mm 13 m/S 666 mmHg 37%
    11:00 +18°C° 0 mm 12 m/S 666 mmHg 33%
    12:00 +18°C° 0 mm 10 m/S 666 mmHg 29%
    13:00 +18°C° 0 mm 9 m/S 666 mmHg 27%
    14:00 +18°C° 0 mm 8 m/S 666 mmHg 25%
    15:00 +17°C° 0 mm 7 m/S 666 mmHg 23%
    16:00 +16°C° 0 mm 6 m/S 666 mmHg 30%
    17:00 +14°C° 0 mm 4 m/S 666 mmHg 36%
    18:00 +13°C° 0 mm 3 m/S 666 mmHg 43%
    19:00 +13°C° 0 mm 2 m/S 667 mmHg 46%
    20:00 +13°C° 0 mm 2 m/S 667 mmHg 48%
    21:00 +13°C° 0 mm 1 m/S 668 mmHg 50%
    22:00 +12°C° 0 mm 1 m/S 668 mmHg 50%
    23:00 +12°C° 0 mm 1 m/S 667 mmHg 50%
    Mehr zeigen